Location: The Saddle
(36.8333°N, 80.3417°W)
Time: 22:20:47
(UTC-05:00)

Altair - Visible Passes

Search period start: 27 January 2022 00:00
Search period end: 06 February 2022 00:00
Orbit: 1501 x 1683 km, 47.2° (Epoch: 27 January)

Date Brightness Start Highest point End Pass type
(mag) Time Alt. Az. Time Alt. Az. Time Alt. Az.
27 Jan 9.6 02:09:27 16° NE 02:09:27 16° NE 02:11:02 10° ENE visible
27 Jan 8.1 04:07:28 46° N 04:07:28 46° N 04:17:00 10° ENE visible
27 Jan 7.9 06:05:29 17° NW 06:13:44 65° NNE 06:23:44 10° ESE visible
28 Jan 9.8 01:45:36 11° ENE 01:45:36 11° ENE 01:45:46 10° ENE visible
28 Jan 8.3 03:43:36 44° NNE 03:43:36 44° NNE 03:51:38 10° ENE visible
28 Jan 7.9 05:41:37 24° NW 05:48:26 62° NNE 05:58:25 10° ESE visible
29 Jan 8.6 03:19:46 37° NE 03:19:46 37° NE 03:26:18 10° ENE visible
29 Jan 7.9 05:17:47 31° NW 05:23:08 60° NNE 05:33:06 10° E visible
30 Jan 8.9 02:55:57 30° NE 02:55:57 30° NE 03:00:57 10° ENE visible
30 Jan 7.9 04:53:57 39° NW 04:57:48 57° NNE 05:07:45 10° E visible
30 Jan 7.8 06:53:00 10° WNW 07:03:05 69° SW 07:12:59 10° SE visible
31 Jan 9.2 02:32:09 23° NE 02:32:09 23° NE 02:35:37 10° ENE visible
31 Jan 8.0 04:30:10 47° NNW 04:32:29 55° NNE 04:42:25 10° E visible
31 Jan 7.7 06:28:11 12° WNW 06:37:53 74° SW 06:47:53 10° SE visible
01 Feb 9.5 02:08:23 17° ENE 02:08:23 17° ENE 02:10:17 10° ENE visible
01 Feb 7.9 04:06:24 53° N 04:07:09 53° NNE 04:17:03 10° E visible
01 Feb 7.7 06:04:25 18° WNW 06:12:41 79° SW 06:22:44 10° SE visible
02 Feb 9.8 01:44:39 11° ENE 01:44:39 11° ENE 01:44:58 10° ENE visible
02 Feb 8.1 03:42:41 51° NNE 03:42:41 51° NNE 03:51:40 10° E visible
02 Feb 7.6 05:40:42 25° WNW 05:47:29 83° SW 05:57:35 10° SE visible
02 Feb 9.3 20:52:48 10° S 20:53:15 11° S 20:53:15 11° S visible
03 Feb 8.4 03:19:01 43° NE 03:19:01 43° NE 03:26:19 10° E visible
03 Feb 7.6 05:17:02 35° WNW 05:22:14 88° SW 05:32:24 10° SE visible
03 Feb 9.1 20:28:10 10° S 20:30:06 15° SSE 20:30:06 15° SSE visible
04 Feb 8.8 02:55:23 33° ENE 02:55:23 33° ENE 03:00:56 10° E visible
04 Feb 7.5 04:53:25 48° NW 04:57:00 87° NNE 05:07:11 10° ESE visible
04 Feb 8.4 06:52:31 10° WNW 07:01:09 33° SW 07:09:40 10° S visible
04 Feb 8.8 20:03:35 10° S 20:06:59 18° SSE 20:06:59 18° SSE visible
04 Feb 9.5 22:04:14 10° SW 22:05:04 13° SW 22:05:04 13° SW visible
05 Feb 9.2 02:31:49 24° ENE 02:31:49 24° ENE 02:35:33 10° E visible
05 Feb 7.5 04:29:51 64° NW 04:31:46 83° NNE 04:41:57 10° ESE visible
05 Feb 8.3 06:27:53 12° WNW 06:36:02 36° SW 06:44:50 10° SSE visible
05 Feb 8.7 19:39:07 10° SSE 19:43:54 19° SE 19:43:54 19° SE visible
05 Feb 9.0 21:39:08 10° SW 21:41:58 23° SW 21:41:58 23° SW visible
